Latest Weather Observations for Sydney - Observatory Hill

IDN60801

Issued at 9:02 pm EDT Sunday 22 January 2017 (issued every 30 minutes, with the page automatically refreshed every 10 minutes)

About weather observations | Map of weather stations | Latest weather observations for NSW | Other Formats
Station Details ID: 066062 Name: SYDNEY (OBSERVATORY HILL) Lat: -33.86 Lon: 151.21 Height: 39.0 m
Data from the previous 72 hours. | See also: Recent months at Sydney - Observatory Hill

* Apparent temperature (App Temp) for Sydney - Observatory Hill is calculated using temperature observations collected at Sydney - Observatory Hill and wind observations collected at Fort Denison, as wind observations are not currently provided for Sydney - Observatory Hill.

Date/Time
EDT
Temp
°C
App
Temp
°C
Dew
Point
°C
Rel
Hum
%
Delta-T
°C
Wind Press
QNH
hPa
Press
MSL
hPa
Rain since
9am
mm
Dir  Spd
km/h
Gust
km/h
Spd
kts
Gust
kts
22/08:30pm 23.5 21.8 16.3 64 4.4 NE 20 - 11 - 1015.2 1015.1 0.0
22/08:00pm 23.7 22.0 16.2 63 4.6 ENE 20 - 11 - 1015.1 1015.0 0.0
22/07:30pm 23.9 22.1 15.9 61 4.9 ENE 20 - 11 - 1015.0 1014.9 0.0
22/07:00pm 24.1 20.6 16.4 62 4.7 ENE 30 - 16 - 1014.7 1014.6 0.0
22/06:30pm 24.5 21.1 15.7 58 5.3 ENE 28 - 15 - 1014.7 1014.6 0.0
22/06:00pm 24.6 20.6 15.2 55 5.7 ENE 30 - 16 - 1014.5 1014.4 0.0
22/05:30pm 25.2 21.7 15.5 55 5.9 E 28 - 15 - 1014.5 1014.4 0.0
22/05:00pm 25.4 21.6 14.8 52 6.4 E 28 - 15 - 1014.8 1014.7 0.0
22/04:30pm 25.5 22.6 15.2 53 6.2 E 24 - 13 - 1015.0 1014.9 0.0
22/04:00pm 25.8 22.6 15.2 52 6.4 E 26 - 14 - 1015.4 1015.3 0.0
22/03:30pm 25.7 22.6 14.5 50 6.7 E 24 - 13 - 1015.5 1015.4 0.0
22/03:00pm 26.0 23.4 14.8 50 6.7 E 22 - 12 - 1015.9 1015.8 0.0
22/02:30pm 25.2 22.7 15.2 54 6.0 E 22 - 12 - 1016.0 1015.9 0.0
22/02:00pm 24.8 22.4 14.3 52 6.2 E 20 - 11 - 1016.2 1016.1 0.0
22/01:30pm 24.7 22.1 13.9 51 6.4 E 20 - 11 - 1016.5 1016.4 0.0
22/01:00pm 25.2 23.0 13.4 48 6.9 E 17 - 9 - 1016.9 1016.8 0.0
22/12:30pm 24.9 22.3 13.1 48 6.9 ESE 19 - 10 - 1017.1 1017.0 0.0
22/12:00pm 25.2 23.0 13.4 48 6.9 ESE 17 - 9 - 1017.5 1017.4 0.0
22/11:30am 25.2 23.3 13.1 47 7.0 ESE 15 - 8 - 1017.6 1017.5 0.0
22/11:00am 25.1 23.1 12.7 46 7.2 ESE 15 - 8 - 1017.6 1017.5 0.0
22/10:30am 24.6 23.4 12.9 48 6.8 ESE 11 - 6 - 1017.8 1017.7 0.0
22/10:00am 24.2 22.9 12.5 48 6.7 E 11 - 6 - 1017.9 1017.8 0.0
22/09:30am 24.3 23.9 12.9 49 6.6 E 7 - 4 - 1017.8 1017.7 0.0
22/09:00am 23.8 23.9 12.8 50 6.3 NE 4 - 2 - 1018.0 1017.9 0.0
22/08:30am 23.8 24.1 13.4 52 6.1 SE 4 - 2 - 1017.9 1017.8 0.0
22/08:00am 21.5 21.2 13.2 59 4.8 S 7 - 4 - 1017.7 1017.6 0.0
22/07:30am 20.7 20.3 12.9 61 4.4 SSW 7 - 4 - 1017.6 1017.5 0.0
22/07:00am 20.6 20.3 13.3 63 4.2 S 7 - 4 - 1017.4 1017.3 0.0
22/06:30am 20.5 19.8 13.2 63 4.2 S 9 - 5 - 1017.3 1017.2 0.0
22/06:00am 20.5 19.4 13.0 62 4.3 SSW 11 - 6 - 1017.1 1017.0 0.0
22/05:30am 20.5 19.3 12.7 61 4.4 SSW 11 - 6 - 1016.8 1016.7 0.0
22/05:00am 20.5 19.6 12.7 61 4.4 SSW 9 - 5 - 1016.7 1016.6 0.0
22/04:30am 20.5 19.3 12.7 61 4.4 S 11 - 6 - 1016.5 1016.4 0.0
22/04:00am 20.6 19.8 12.8 61 4.4 S 9 - 5 - 1016.4 1016.3 0.0
22/03:30am 20.7 19.5 12.7 60 4.5 SSE 11 - 6 - 1016.5 1016.4 0.0
22/03:00am 20.8 19.7 13.0 61 4.4 SSE 11 - 6 - 1016.5 1016.4 0.0
22/02:30am 20.8 19.3 13.0 61 4.4 S 13 - 7 - 1016.7 1016.6 0.0
22/02:00am 20.9 18.6 13.1 61 4.4 SSE 17 - 9 - 1016.8 1016.7 0.0
22/01:30am 21.0 19.4 12.9 60 4.6 SSE 13 - 7 - 1017.0 1016.9 0.0
22/01:00am 20.9 19.3 12.8 60 4.6 S 13 - 7 - 1017.0 1016.9 0.0
22/12:30am 21.0 19.1 12.9 60 4.6 SSE 15 - 8 - 1017.2 1017.1 0.0
22/12:00am 21.2 19.9 13.6 62 4.4 S 13 - 7 - 1017.2 1017.1 0.0
 
Date/Time
EDT
Temp
°C
App
Temp
°C
Dew
Point
°C
Rel
Hum
%
Delta-T
°C
Wind Press
QNH
hPa
Press
MSL
hPa
Rain since
9am
mm
Dir  Spd
km/h
Gust
km/h
Spd
kts
Gust
kts
21/11:30pm 21.2 19.6 13.9 63 4.2 S 15 - 8 - 1017.0 1016.9 0.0
21/11:00pm 21.2 19.2 13.9 63 4.2 SSE 17 - 9 - 1017.0 1016.9 0.0
21/10:30pm 21.5 19.2 14.2 63 4.3 S 19 - 10 - 1016.9 1016.8 0.0
21/10:00pm 21.7 19.9 14.4 63 4.3 SSE 17 - 9 - 1016.8 1016.7 0.0
21/09:30pm 21.9 19.5 13.8 60 4.7 SSE 19 - 10 - 1016.5 1016.4 0.0
21/09:00pm 22.0 20.4 13.9 60 4.7 SSE 15 - 8 - 1016.2 1016.1 0.0
21/08:30pm 21.9 20.6 13.8 60 4.7 SE 13 - 7 - 1015.8 1015.7 0.0
21/08:00pm 22.0 20.0 13.9 60 4.7 SE 17 - 9 - 1015.2 1015.1 0.0
21/07:30pm 22.2 19.6 13.8 59 4.9 SE 20 - 11 - 1014.7 1014.6 0.0
21/07:00pm 22.3 20.1 13.4 57 5.1 SE 17 - 9 - 1014.2 1014.1 0.0
21/06:30pm 22.6 20.0 13.7 57 5.2 SE 20 - 11 - 1013.7 1013.6 0.0
21/06:00pm 22.9 19.7 13.1 54 5.7 ESE 22 - 12 - 1013.3 1013.2 0.0
21/05:30pm 23.7 20.5 13.0 51 6.2 ESE 22 - 12 - 1013.0 1012.9 0.0
21/05:00pm 24.1 21.2 13.0 50 6.4 SSE 20 - 11 - 1012.9 1012.8 0.0
21/04:30pm 23.9 20.3 11.9 47 6.8 SE 22 - 12 - 1012.8 1012.7 0.0
21/04:00pm 24.4 20.6 12.4 47 6.9 SE 24 - 13 - 1012.7 1012.6 0.0
21/03:30pm 25.5 21.6 12.0 43 7.7 SE 24 - 13 - 1012.5 1012.4 0.0
21/03:00pm 26.6 23.6 12.6 42 8.1 SE 20 - 11 - 1012.3 1012.2 0.0
21/02:30pm 26.2 22.2 11.9 41 8.2 SE 24 - 13 - 1012.0 1011.9 0.0
21/02:00pm 26.2 22.8 11.2 39 8.5 SE 20 - 11 - 1011.9 1011.8 0.0
21/01:30pm 26.3 22.1 9.6 35 9.2 SSE 22 - 12 - 1012.0 1011.9 0.0
21/01:00pm 25.8 21.8 9.2 35 9.1 SSE 20 - 11 - 1011.9 1011.8 0.0
21/12:30pm 25.1 21.6 10.2 39 8.3 S 19 - 10 - 1011.9 1011.8 0.0
21/12:00pm 25.7 21.9 11.1 40 8.2 SSE 22 - 12 - 1011.9 1011.8 0.0
21/11:30am 24.6 20.7 10.8 42 7.7 SSE 22 - 12 - 1011.7 1011.6 0.0
21/11:00am 24.9 21.6 11.5 43 7.6 S 20 - 11 - 1011.6 1011.5 0.0
21/10:30am 24.1 20.9 13.0 50 6.4 SSE 22 - 12 - 1011.4 1011.3 0.0
21/10:00am 22.9 18.4 11.3 48 6.5 SSE 26 - 14 - 1011.1 1011.0 0.0
21/09:30am 22.7 19.3 11.1 48 6.5 SSE 20 - 11 - 1010.9 1010.7 0.0
21/09:00am 22.2 18.4 11.0 49 6.2 SSE 22 - 12 - 1010.7 1010.5 7.8
21/08:30am 22.2 19.1 11.6 51 5.9 S 19 - 10 - 1010.3 1010.1 7.8
21/08:00am 21.8 19.1 11.8 53 5.6 SSE 17 - 9 - 1009.8 1009.6 7.8
21/07:30am 21.3 18.3 11.9 55 5.3 SSE 19 - 10 - 1009.3 1009.1 7.8
21/07:00am 21.2 19.0 12.1 56 5.1 SSE 15 - 8 - 1008.6 1008.4 7.8
21/06:30am 21.1 18.5 12.0 56 5.1 S 17 - 9 - 1008.0 1007.8 7.8
21/06:00am 21.0 18.4 11.9 56 5.1 S 17 - 9 - 1007.4 1007.2 7.8
21/05:30am 20.9 18.6 11.8 56 5.1 S 15 - 8 - 1006.6 1006.4 7.8
21/05:00am 21.1 18.2 12.3 57 5.0 S 19 - 10 - 1006.3 1006.1 7.8
21/04:30am 21.3 18.3 12.4 57 5.0 S 20 - 11 - 1006.0 1005.8 7.6
21/04:00am 21.5 17.5 11.8 54 5.4 S 24 - 13 - 1005.8 1005.6 7.6
21/03:30am 21.6 18.9 13.5 60 4.7 S 20 - 11 - 1005.4 1005.2 7.6
21/03:00am 21.7 18.8 14.1 62 4.4 SSE 22 - 12 - 1005.0 1004.8 7.6
21/02:30am 22.1 18.9 13.2 57 5.1 SSE 22 - 12 - 1004.6 1004.4 7.6
21/02:00am 22.1 18.7 12.6 55 5.4 S 22 - 12 - 1004.2 1004.0 7.6
21/01:30am 22.3 18.2 12.8 55 5.4 S 26 - 14 - 1004.0 1003.8 7.6
21/01:00am 22.4 18.4 12.9 55 5.5 S 26 - 14 - 1003.4 1003.2 7.6
21/12:30am 22.6 19.4 15.2 63 4.4 SSE 26 - 14 - 1003.0 1002.8 7.6
21/12:00am 22.7 19.9 15.3 63 4.4 S 24 - 13 - 1002.4 1002.2 7.6
 
Date/Time
EDT
Temp
°C
App
Temp
°C
Dew
Point
°C
Rel
Hum
%
Delta-T
°C
Wind Press
QNH
hPa
Press
MSL
hPa
Rain since
9am
mm
Dir  Spd
km/h
Gust
km/h
Spd
kts
Gust
kts
20/11:30pm 22.7 18.8 15.5 64 4.3 S 30 - 16 - 1001.7 1001.5 7.6
20/11:00pm 22.5 20.6 16.8 70 3.5 S 22 - 12 - 1001.2 1001.0 7.6
20/10:30pm 22.5 18.9 17.2 72 3.3 S 32 - 17 - 1000.5 1000.3 7.6
20/10:00pm 22.8 18.3 17.3 71 3.4 S 37 - 20 - 999.6 999.4 7.6
20/09:30pm 23.8 20.1 18.4 72 3.4 SSW 35 - 19 - 998.3 998.1 7.6
20/09:23pm 24.3 - 18.7 71 3.6 - - - - - 998.2 998.0 7.6
20/09:00pm 26.3 29.5 22.4 79 2.6 WNW 9 - 5 - 996.2 996.0 7.6
20/08:30pm 26.2 30.1 22.5 80 2.5 W 6 - 3 - 995.4 995.2 7.6
20/08:00pm 26.5 28.5 22.3 78 2.8 W 15 - 8 - 995.1 994.9 7.6
20/07:30pm 26.9 26.7 22.1 75 3.2 WSW 26 - 14 - 995.0 994.8 7.6
20/07:00pm 28.4 32.6 21.7 67 4.5 ESE 2 - 1 - 993.4 993.3 7.0
20/06:30pm 27.9 31.7 21.7 69 4.2 SE 4 - 2 - 993.2 993.1 7.0
20/06:00pm 28.3 31.0 22.1 69 4.2 ESE 11 - 6 - 992.7 992.6 7.0
20/05:30pm 26.4 26.7 20.5 70 3.9 E 19 - 10 - 992.8 992.7 7.0
20/05:00pm 28.9 31.5 21.9 66 4.7 NNW 11 - 6 - 993.1 993.0 7.0
20/04:30pm 28.8 29.2 21.8 66 4.7 N 22 - 12 - 993.0 992.9 7.0
20/04:00pm 29.0 28.9 21.5 64 5.1 NNW 24 - 13 - 993.1 993.0 7.0
20/03:30pm 28.9 29.4 21.9 66 4.7 NNW 22 - 12 - 993.7 993.6 7.0
20/03:00pm 28.3 27.6 21.8 68 4.4 NNW 28 - 15 - 994.5 994.3 7.0
20/02:30pm 27.7 29.4 23.1 76 3.1 N 19 - 10 - 995.1 994.9 7.0
20/02:00pm 24.8 27.2 21.5 82 2.2 NNE 11 - 6 - 995.8 995.6 7.0
20/01:30pm 22.6 24.7 20.1 86 1.6 NE 9 - 5 - 996.5 996.3 7.0
20/01:00pm 22.6 24.2 19.9 85 1.7 E 11 - 6 - 997.7 997.5 7.0
20/12:30pm 22.8 25.0 19.2 80 2.3 ESE 6 - 3 - 998.4 998.2 5.4
20/12:00pm 23.2 25.1 18.5 75 3.0 ENE 6 - 3 - 998.4 998.2 2.0
20/11:30am 23.8 25.0 18.2 71 3.5 NNE 9 - 5 - 998.9 998.7 0.0
20/11:00am 24.0 24.1 17.5 67 4.1 NE 13 - 7 - 998.6 998.4 0.0
20/10:30am 23.8 22.2 17.5 68 3.9 ENE 22 - 12 - 998.7 998.5 0.0
20/10:00am 24.5 23.8 16.5 61 4.9 NE 15 - 8 - 999.4 999.2 0.0
20/09:30am 24.8 23.2 16.5 60 5.1 NNE 20 - 11 - 1000.5 1000.3 0.0
20/09:00am 24.1 22.1 16.4 62 4.7 NNE 22 - 12 - 1001.3 1001.1 0.0
20/08:30am 23.5 21.8 16.3 64 4.4 NNE 20 - 11 - 1001.8 1001.6 0.0
20/08:00am 22.9 21.2 15.7 64 4.4 NNE 19 - 10 - 1002.6 1002.4 0.0
20/07:30am 22.7 21.0 16.3 67 3.9 N 20 - 11 - 1003.2 1003.0 0.0
20/07:00am 22.0 20.8 16.1 69 3.6 N 17 - 9 - 1003.5 1003.3 0.0
20/06:30am 22.1 21.4 16.4 70 3.5 NNE 15 - 8 - 1003.4 1003.2 0.0
20/06:00am 22.0 21.3 16.3 70 3.5 NE 15 - 8 - 1003.8 1003.6 0.0
20/05:30am 21.9 21.1 16.0 69 3.6 NNE 15 - 8 - 1004.2 1004.0 0.0
20/05:00am 22.1 20.0 16.1 69 3.6 NNE 22 - 12 - 1004.6 1004.4 0.0
20/04:30am 22.3 20.2 16.1 68 3.7 NNE 22 - 12 - 1005.1 1004.9 0.0
20/04:00am 22.3 21.0 15.9 67 3.9 N 17 - 9 - 1005.9 1005.7 0.0
20/03:30am 22.2 20.3 15.8 67 3.9 NNE 20 - 11 - 1006.0 1005.8 0.0
20/03:00am 22.2 20.8 15.5 66 4.0 NNE 17 - 9 - 1006.6 1006.4 0.0
20/02:30am 22.2 21.2 15.5 66 4.0 NNE 15 - 8 - 1007.7 1007.5 0.0
20/02:00am 22.0 20.9 15.4 66 3.9 NNE 15 - 8 - 1008.2 1008.0 0.0
20/01:30am 21.8 20.8 15.6 68 3.7 NE 15 - 8 - 1008.7 1008.5 0.0
20/01:00am 21.1 21.4 16.9 77 2.6 ENE 11 - 6 - 1009.6 1009.4 0.0
20/12:30am 20.2 20.7 17.4 84 1.7 ENE 11 - 6 - 1009.9 1009.7 0.0
20/12:00am 20.0 20.3 17.0 83 1.8 NE 11 - 6 - 1010.5 1010.3 0.0
 
Date/Time
EDT
Temp
°C
App
Temp
°C
Dew
Point
°C
Rel
Hum
%
Delta-T
°C
Wind Press
QNH
hPa
Press
MSL
hPa
Rain since
9am
mm
Dir  Spd
km/h
Gust
km/h
Spd
kts
Gust
kts
19/11:30pm 20.3 19.9 16.1 77 2.5 NE 13 - 7 - 1010.8 1010.6 0.0
19/11:00pm 21.4 18.2 15.3 68 3.6 ENE 26 - 14 - 1011.0 1010.8 0.0
19/10:30pm 21.6 17.8 14.7 65 4.1 NE 28 - 15 - 1011.2 1011.1 0.0
19/10:00pm 21.9 19.1 14.3 62 4.5 NE 22 - 12 - 1011.2 1011.1 0.0
19/09:30pm 22.1 20.2 14.2 61 4.6 NE 17 - 9 - 1011.4 1011.3 0.0

Other Formats:

Comma delimited format used in spreadsheet applications
http://www.bom.gov.au/fwo/IDN60801/IDN60801.94768.axf

JavaScript Object Notation format (JSON) in row-major order
http://www.bom.gov.au/fwo/IDN60801/IDN60801.94768.json